Regional Weather Roundup
Issued by NWS

Home | Current Version | Previous Version | Text Only | Print | Product List | Glossary Off
Versions: 1 2 3 4 5 6 7 8 9 10 11 12 13 14 15 16 17 18 19 20 21 22 23 24 25 26 27 28 29 30 31 32 33 34 35 36 37 38 39 40 41 42 43 44 45 46 47 48 49 50

000
ASUS43 KFSD 270402
RWRSD

WEATHER ROUNDUP FOR SOUTH DAKOTA
NATIONAL WEATHER SERVICE SIOUX FALLS SD
1100 PM CDT MON SEP 26 2016

NOTE: "FAIR" INDICATES FEW OR NO CLOUDS BELOW 12,000 FEET WITH NO
SIGNIFICANT WEATHER AND/OR OBSTRUCTIONS TO VISIBILITY.


SDZ001>005-009-010-012>017-270500-
NORTHWEST AND NORTH CENTRAL SOUTH DAKOTA

CITY           SKY/WX    TMP DP  RH WIND       PRES   REMARKS
BUFFALO          N/A     51  42  71 W5        30.09F
FAITH            N/A     53  41  63 NW6       30.14F
MOBRIDGE       CLEAR     46  37  71 CALM      30.07F
$$

SDZ012>016-024>037-041>051-057-063-072>074-270500-
SOUTHWEST AND SOUTH CENTRAL SOUTH DAKOTA

CITY           SKY/WX    TMP DP  RH WIND       PRES   REMARKS
RAPID CTY ARPT CLEAR     47  40  76 NW6       30.19F
PIERRE         CLEAR     49  38  65 NW9       30.09F
CUSTER         CLEAR     46  38  73 W3        30.28F
ELLSWORTH AFB  CLOUDY    53  41  63 SW3       30.18F
PHILIP         CLEAR     50  40  68 NW6       30.14F
PINE RIDGE     CLEAR     47  39  74 CALM      30.21F
WINNER         FAIR      52  42  69 SW7       30.12F
$$

SDZ004>011-016>023-039-040-270500-
NORTHEAST SOUTH DAKOTA

CITY           SKY/WX    TMP DP  RH WIND       PRES   REMARKS
ABERDEEN       CLEAR     53  36  52 NW10      30.03F
WATERTOWN      CLEAR     54  37  52 NW9       30.02S
SISSETON         N/A     55  35  47 NW10      29.97S
$$

SDZ017-020-022-023-036>040-048>070-270500-
SOUTHEAST SOUTH DAKOTA

CITY           SKY/WX    TMP DP  RH WIND       PRES   REMARKS
SIOUX FALLS    CLEAR     52  36  54 W7        30.04S
HURON          CLEAR     49  34  56 W9        30.05F
CHAMBERLAIN    CLEAR     59  41  51 NW6       30.10S
MITCHELL       CLEAR     53  38  56 W7        30.07S
YANKTON        CLEAR     52  43  71 W8        30.06S
$$

ABBREVIATIONS USED IN REMARKS
   TC - TEMPERATURE IN CELSIUS
  WCI - WIND CHILL INDEX
   HX - HEAT INDEX
  VSB - VISIBILITY





USA.gov is the U.S. government's official web portal to all federal, state and local government web resources and services.